Location: Ottawa
(45.4170°N, 75.7000°W)
Time: 04:28:22
(UTC-04:00)

Iridium 91 - Visible Passes

Search period start: 28 May 2017 00:00
Search period end: 07 June 2017 00:00
Orbit: 776 x 779 km, 86.4° (Epoch: 27 May)

Date Brightness Start Highest point End Pass type
(mag) Time Alt. Az. Time Alt. Az. Time Alt. Az.
28 May 5.7 04:21:02 10° S 04:26:14 76° E 04:31:27 10° N visible
29 May 6.7 03:47:55 10° SSE 03:52:48 43° E 03:57:43 10° NNE visible
30 May 7.6 03:15:21 10° SE 03:19:30 25° E 03:23:40 10° NNE visible
31 May 8.1 02:43:40 10° ESE 02:46:20 14° ENE 02:48:59 10° NE visible
31 May 5.5 04:21:08 10° S 04:26:20 77° W 04:31:35 10° N visible
01 Jun 6.0 03:47:43 10° SSE 03:52:50 61° E 03:57:59 10° N visible
02 Jun 7.0 03:14:49 10° SSE 03:19:28 34° E 03:24:09 10° NNE visible
03 Jun 7.8 02:42:31 10° SE 02:46:12 20° ENE 02:49:55 10° NNE visible
03 Jun 5.8 04:21:23 10° SSW 04:26:29 54° W 04:31:37 10° N visible
04 Jun 8.2 02:11:39 10° E 02:13:05 11° ENE 02:14:31 10° ENE visible
04 Jun 5.6 03:47:42 10° S 03:52:54 86° E 03:58:10 10° N visible
05 Jun 6.4 03:14:29 10° SSE 03:19:28 48° E 03:24:28 10° NNE visible
06 Jun 7.3 02:41:48 10° SE 02:46:08 28° E 02:50:30 10° NNE visible
06 Jun 6.2 04:21:50 10° SSW 04:26:41 38° W 04:31:33 10° NNW visible
